Location: Augirein
(42.9320°N, 0.9181°E)
Time: 16:18:25
(UTC+00:00)

IDEFIX/ARIANE 42P - Pass Details

Date: 20 June 2021
Orbit: 784 x 803 km, 98.4° (Epoch: 04 August)

Event Time Altitude Azimuth Distance (km) Brightness Sun altitude
Rises 01:41:10 0° 25° (NNE) 3,312 7.5 -19.5°
Reaches altitude 10° 01:43:55 10° 38° (NE) 2,374 6.2 -19.3°
Maximum altitude 01:48:13 25° 94° (E) 1,543 4.3 -18.9°
Enters shadow 01:52:19 11° 148° (SSE) 2,299 4.7 -18.6°
